Weather History for KMCB - May, 2014

Change the Weather History Date:

Wednesday, May 28, 2014

  Actual Average Record
Temperature  
Mean Temperature 70 °F -  
Max Temperature 73 °F 86 °F 96 °F (2011)
Min Temperature 66 °F 63 °F 45 °F (1961)
Cooling Degree Days 4    
Growing Degree Days 20 (Base 50)    
Moisture  
Dew Point 67 °F    
Average Humidity 93    
Maximum Humidity 97    
Minimum Humidity 88    
Precipitation  
Precipitation 1.73 in - - ()
Sea Level Pressure  
Sea Level Pressure 29.93 in    
Wind  
Wind Speed 6 mph (SSE)    
Max Wind Speed 13 mph    
Max Gust Speed 21 mph    
Visibility 5 miles    
Events Rain , Thunderstorm    
Averages and records for this station are not official NWS values.
T = Trace of Precipitation, MM = Missing Value Source: NWS Daily Summary

Daily Weather History Graph

Daily Weather History Graph

Search for Another Location

Airport or City:

Trip Planner

Search our weather history database for the weather conditions in past years. The results will help you decide how hot, cold, wet, or windy it might be!

Date:

Astronomy

May. 28, 2014 Rise Set
Actual Time 5:59 AM CDT 7:58 PM CDT
Civil Twilight 5:32 AM CDT 8:26 PM CDT
Nautical Twilight 4:59 AM CDT 8:59 PM CDT
Astronomical Twilight 4:24 AM CDT 9:34 PM CDT
Moon 6:01 AM CDT (5/28) 8:01 PM CDT (5/28)
Length of Visible Light 14h 53m
Length of Day
13h 59m
Waning Crescent, 0% of the Moon is Illuminated
May 28
Waning Crescent
May 28
New
Jun 5
First Quarter
Jun 12
Full
Jun 19
Last Quarter

Hourly Weather History & Observations

Time (CDT) Temp. Dew Point Humidity Pressure Visibility Wind Dir Wind Speed Gust Speed Precip Events Conditions
12:53 AM 72.0 °F 70.0 °F 93% 29.93 in 7.0 mi SE 5.8 mph - N/A   Scattered Clouds
1:40 AM 72.0 °F 70.0 °F 93% 29.96 in 7.0 mi SSE 4.6 mph - N/A Thunderstorm Mostly Cloudy
1:53 AM 72.0 °F 70.0 °F 93% 29.94 in 7.0 mi SE 3.5 mph - N/A Thunderstorm Mostly Cloudy
2:21 AM 73.0 °F 70.0 °F 90% 29.95 in 7.0 mi Calm Calm - 0.00 in Rain , Thunderstorm Light Thunderstorms and Rain
2:34 AM 73.0 °F 71.1 °F 93% 29.96 in 7.0 mi NW 5.8 mph - 0.00 in Rain , Thunderstorm Light Thunderstorms and Rain
2:53 AM 69.1 °F 66.0 °F 90% 29.96 in 4.0 mi WNW 8.1 mph - 0.06 in Rain , Thunderstorm Thunderstorms and Rain
2:58 AM 68.0 °F 66.0 °F 93% 29.96 in 2.5 mi WNW 12.7 mph 20.7 mph 0.07 in Rain , Thunderstorm Heavy Thunderstorms and Rain
3:10 AM 66.9 °F 64.9 °F 93% 29.96 in 2.5 mi West 4.6 mph - 0.16 in Rain Rain
3:12 AM 66.9 °F 64.9 °F 93% 29.96 in 3.0 mi WNW 5.8 mph - 0.17 in Rain , Thunderstorm Thunderstorms and Rain
3:27 AM 68.0 °F 66.0 °F 93% 29.97 in 1.8 mi West 10.4 mph - 0.31 in Rain , Thunderstorm Heavy Thunderstorms and Rain
3:30 AM 68.0 °F 66.0 °F 93% 29.97 in 1.2 mi West 6.9 mph - 0.33 in Rain , Thunderstorm Heavy Thunderstorms and Rain
3:32 AM 66.9 °F 66.0 °F 97% 29.96 in 1.2 mi West 5.8 mph - 0.34 in Rain , Thunderstorm Heavy Rain
3:44 AM 68.0 °F 66.0 °F 93% 29.94 in 3.0 mi WNW 6.9 mph - 0.40 in Rain , Thunderstorm Rain
3:53 AM 68.0 °F 66.0 °F 93% 29.93 in 4.0 mi WNW 3.5 mph - 0.42 in Rain Rain
4:19 AM 68.0 °F 66.0 °F 93% 29.95 in 5.0 mi ENE 3.5 mph - 0.08 in Rain , Thunderstorm Rain
4:26 AM 68.0 °F 66.0 °F 93% 29.96 in 3.0 mi SSW 5.8 mph - 0.12 in Rain Heavy Rain
4:29 AM 68.0 °F 66.0 °F 93% 29.96 in 1.8 mi South 4.6 mph - 0.19 in Rain Heavy Rain
4:35 AM 68.0 °F 66.0 °F 93% 29.96 in 0.8 mi West 4.6 mph - 0.32 in Rain , Thunderstorm Heavy Rain
4:48 AM 68.0 °F 66.2 °F 94% 29.95 in 1.2 mi ENE 4.6 mph - 0.55 in Rain , Thunderstorm Heavy Thunderstorms and Rain
4:53 AM 66.9 °F 66.0 °F 97% 29.95 in 2.5 mi ESE 5.8 mph - 0.56 in Rain , Thunderstorm Thunderstorms and Rain
4:57 AM 68.0 °F 66.0 °F 93% 29.96 in 5.0 mi ESE 6.9 mph - 0.01 in Rain , Thunderstorm Thunderstorms and Rain
5:16 AM 66.9 °F 66.0 °F 97% 29.95 in 4.0 mi ESE 5.8 mph - 0.08 in Rain Rain
5:31 AM 66.9 °F 64.9 °F 93% 29.94 in 4.0 mi SE 6.9 mph - 0.13 in Rain , Thunderstorm Rain
5:48 AM 66.2 °F 64.4 °F 94% 29.94 in 5.0 mi SE 6.9 mph - 0.17 in Rain Rain
5:53 AM 66.9 °F 64.9 °F 93% 29.93 in 5.0 mi SE 5.8 mph - 0.19 in Rain , Thunderstorm Rain
6:10 AM 66.9 °F 64.9 °F 93% 29.94 in 6.0 mi SE 6.9 mph - 0.03 in Rain Rain
6:53 AM 66.9 °F 64.9 °F 93% 29.92 in 10.0 mi Calm Calm - 0.07 in Rain Light Rain
7:53 AM 66.9 °F 64.9 °F 93% 29.93 in 10.0 mi SSE 4.6 mph - 0.01 in   Clear
8:53 AM 68.0 °F 66.0 °F 93% 29.96 in 10.0 mi SSE 6.9 mph - 0.00 in Rain Light Rain
9:19 AM 68.0 °F 66.0 °F 93% 29.97 in 10.0 mi SSE 8.1 mph - 0.01 in Rain Light Rain
9:53 AM 68.0 °F 66.0 °F 93% 29.95 in 7.0 mi South 9.2 mph - 0.04 in Rain Light Rain
10:53 AM 69.1 °F 66.9 °F 93% 29.97 in 5.0 mi South 5.8 mph - 0.08 in Rain Rain
11:50 AM 69.8 °F 66.2 °F 88% 29.96 in 2.5 mi SE 5.8 mph - 0.08 in Rain Light Rain
11:53 AM 69.1 °F 66.9 °F 93% 29.95 in 3.0 mi SSE 6.9 mph - 0.09 in Rain Light Rain
12:03 PM 69.1 °F 66.9 °F 93% 29.95 in 5.0 mi SE 3.5 mph - 0.00 in Rain , Thunderstorm Light Rain
12:18 PM 69.1 °F 66.9 °F 93% 29.96 in 3.0 mi SSE 6.9 mph - 0.05 in Rain Rain
12:28 PM 69.1 °F 66.9 °F 93% 29.96 in 2.5 mi SE 6.9 mph - 0.09 in Rain Heavy Rain
1:20 PM 69.1 °F 66.9 °F 93% 29.94 in 4.0 mi SE 9.2 mph - 0.05 in Rain , Thunderstorm Rain
1:53 PM 69.1 °F 66.9 °F 93% 29.92 in 7.0 mi SSE 11.5 mph - 0.09 in Rain Light Rain
2:53 PM 70.0 °F 69.1 °F 97% 29.93 in 5.0 mi SSE 11.5 mph - 0.02 in Rain Light Rain
3:12 PM 70.0 °F 68.0 °F 93% 29.93 in 6.0 mi SSE 11.5 mph - 0.02 in Rain Rain
3:20 PM 70.0 °F 68.0 °F 93% 29.93 in 4.0 mi SE 10.4 mph - 0.03 in Rain Light Rain
3:37 PM 70.0 °F 68.0 °F 93% 29.93 in 2.5 mi SE 12.7 mph - 0.06 in Rain Light Rain
3:53 PM 70.0 °F 68.0 °F 93% 29.90 in 2.5 mi ESE 11.5 mph - 0.10 in Rain Light Rain
4:11 PM 70.0 °F 68.0 °F 93% 29.91 in 3.0 mi SE 10.4 mph - 0.00 in Rain Light Rain
4:45 PM 72.0 °F 69.1 °F 91% 29.89 in 6.0 mi ESE 9.2 mph - 0.00 in   Mostly Cloudy
5:06 PM 72.0 °F 69.1 °F 91% 29.89 in 10.0 mi SSE 9.2 mph - N/A   Mostly Cloudy
6:53 PM 71.1 °F 69.1 °F 93% 29.86 in 8.0 mi SE 8.1 mph - N/A   Clear
7:53 PM 71.1 °F 68.0 °F 90% 29.87 in 10.0 mi SE 8.1 mph - N/A   Mostly Cloudy
8:08 PM 71.1 °F 68.0 °F 90% 29.88 in 6.0 mi SE 8.1 mph - N/A   Mostly Cloudy
8:28 PM 70.0 °F 68.0 °F 93% 29.89 in 6.0 mi ESE 8.1 mph - N/A   Mostly Cloudy
8:53 PM 70.0 °F 68.0 °F 93% 29.88 in 8.0 mi ESE 6.9 mph - N/A   Overcast
9:53 PM 70.0 °F 68.0 °F 93% 29.88 in 8.0 mi SE 9.2 mph - N/A   Mostly Cloudy
10:11 PM 70.0 °F 68.0 °F 93% 29.89 in 10.0 mi SE 5.8 mph - N/A   Scattered Clouds
10:29 PM 70.0 °F 68.0 °F 93% 29.90 in 6.0 mi SE 5.8 mph - N/A   Mostly Cloudy
10:53 PM 70.0 °F 68.0 °F 93% 29.90 in 5.0 mi SE 8.1 mph - 0.00 in Rain Light Rain
11:53 PM 70.0 °F 68.0 °F 93% 29.89 in 7.0 mi SE 11.5 mph - 0.00 in   Overcast